Location: Unspecified
(0.0000°N, 0.0000°E)
Time: 09:36:04
(UTC+00:00)

deb r/b Ablestar - Visible Passes

Search period start: 17 December 2025 00:00
Search period end: 27 December 2025 00:00
Orbit: 813 x 922 km, 66.9° (Epoch: 16 December)

Date Brightness Start Highest point End Pass type
(mag) Time Alt. Az. Time Alt. Az. Time Alt. Az.
17 Dec ? 19:38:31 10° SSW 19:44:34 87° ESE 19:46:10 52° NNE visible
18 Dec ? 19:31:09 10° SSW 19:37:13 81° WNW 19:39:59 35° NNE visible
19 Dec ? 19:23:50 10° SSW 19:29:51 70° WNW 19:33:50 23° N visible
20 Dec ? 19:16:32 10° SSW 19:22:29 60° WNW 19:27:43 14° N visible
21 Dec ? 19:09:16 10° SW 19:15:08 51° WNW 19:21:01 10° N visible
22 Dec ? 19:02:03 10° SW 19:07:46 44° WNW 19:13:31 10° N visible
23 Dec ? 18:54:52 10° SW 19:00:24 38° WNW 19:05:59 10° N visible
24 Dec ? 18:47:43 10° SW 18:53:03 32° WNW 18:58:25 10° N visible
25 Dec ? 18:40:37 10° SW 18:45:42 28° WNW 18:50:47 10° NNW visible
26 Dec ? 18:33:35 10° WSW 18:38:20 24° WNW 18:43:06 10° NNW visible
